www.pogodaiklimat.ru

Погода и климат >> Архив погоды >> Бразилия >> Эспириту-Санту >> Санта-Тереза


ПОГОДА в Санта-Терезе

  • Прогноз погоды в Санта-Терезе
  • Монитор погоды в Санта-Терезе

АРХИВ ПОГОДЫ в Санта-Терезе

Время (UTC), дата Ветер
(напр.,м/с)
 
Видим.   Явления Облачность Т
(С)
Тd
(С)
f
(%)
Тe
(С)
Тes
(С)
Комфортность P
(гПа)
Po
(гПа)
Тmin
(С)
Tmax
(С)
R
(мм)
R24
(мм)
S
(см)
07 19.03 ЮЗ 2
{4}
н/о н/о +19.9 +17.4 86 +23 +23 комфорт 1011.1 902.3
08 19.03 ЮЗ 2
{5}
н/о н/о +20.5 +17.0 80 +24 +24 комфорт 1010.2 901.7
09 19.03 ЮЗ 2
{4}
н/о н/о +20.9 +16.9 78 +25 +25 комфорт 1009.8 901.5
10 19.03 ЮЗ 2
{5}
н/о н/о +21.4 +18.6 84 +26 +26 душно 1010.2 902.0
11 19.03 ЮВ 2
{5}
н/о н/о +22.1 +19.2 84 +28 +28 душно 1010.4 902.5
12 19.03 Ю 2
{4}
н/о н/о +24.3 +20.5 79 +30 +30 очень
душно
1009.8 902.7
13 19.03 Ю 2
{5}
н/о н/о +26.2 +20.9 73 +33 +33 очень
душно
1009.2 902.8
14 19.03 Ю 2
{5}
н/о н/о +26.2 +20.5 71 +33 +33 очень
душно
1009.0 902.6
15 19.03 Ю 2
{5}
н/о н/о +27.2 +21.3 70 +34 +34 очень
душно
1007.8 901.9
16 19.03 Ю 2
{5}
н/о н/о +28.2 +21.1 65 +35 +35 очень
душно
1006.5 901.0
17 19.03 ЮЗ 2
{5}
н/о н/о +26.8 +20.8 70 +34 +34 очень
душно
1006.1 900.2
18 19.03 ЮЗ 2
{5}
н/о н/о +27.5 +21.0 68 +35 +35 очень
душно
1005.4 899.8
19 19.03 ЮЗ 1
{4}
н/о н/о +27.4 +21.4 70 +35 +35 очень
душно
1005.2 899.6
20 19.03 ЮЗ 1
{3}
н/о н/о +23.3 +21.4 89 +31 +31 очень
душно
1007.2 900.0 1
21 19.03 ЮЗ 1
{2}
н/о н/о +22.2 +21.7 97 +29 +29 очень
душно
1008.3 900.6 0.8
22 19.03 ЮЗ 1
{2}
н/о н/о +21.6 +21.0 96 +27 +27 душно 1009.1 901.1
23 19.03 ЮЗ 1
{2}
н/о н/о +23.3 +21.6 90 +31 +31 очень
душно
1009.1 901.7
00 20.03 ЮЗ 1
{2}
н/о н/о +22.5 +21.1 92 +30 +30 очень
душно
1010.3 902.5 0.4
01 20.03 ЮЗ 1
{2}
н/о н/о +22.3 +21.7 96 +29 +29 очень
душно
1010.6 902.7
02 20.03 Ю 1
{2}
н/о н/о +22.4 +20.2 87 +29 +29 очень
душно
1010.1 902.3
03 20.03 Ю 1
{2}
н/о н/о +22.9 +20.7 87 +30 +30 очень
душно
1009.4 901.8
04 20.03 ЮВ 1
{3}
н/о н/о +22.6 +20.4 87 +29 +29 очень
душно
1009.5 901.8
05 20.03 Ю 1
{3}
н/о н/о +22.3 +20.4 89 +29 +29 очень
душно
1009.0 901.3
06 20.03 ЮЗ 1
{2}
н/о н/о +21.4 +20.3 93 +27 +27 душно 1008.8 900.8 0.2
07 20.03 ЮЗ 1
{2}
н/о н/о +21.6 +20.4 93 +27 +27 душно 1008.5 900.6
08 20.03 ЮВ 1
{2}
н/о н/о +21.3 +20.5 95 +27 +27 душно 1009.2 901.1
09 20.03 ЮВ 1
{1}
н/о н/о +20.5 +20.2 98 +26 +26 душно 1009.7 901.3
10 20.03 ЮВ 1
{2}
н/о н/о +21.9 +20.6 92 +28 +28 душно 1009.6 901.7
11 20.03 ЮВ 1
{2}
н/о н/о +23.4 +20.3 83 +31 +31 очень
душно
1009.9 902.5
12 20.03 ЮВ 1
{2}
н/о н/о +23.9 +19.6 77 +29 +29 душно 1010.2 902.9
13 20.03 ЮВ 1
{2}
н/о н/о +24.5 +20.6 79 +30 +30 очень
душно
1009.9 902.8
14 20.03 ЮВ 1
{2}
н/о н/о +24.7 +20.0 75 +30 +30 очень
душно
1009.2 902.3
15 20.03 ЮВ 1
{2}
н/о н/о +27.2 +21.1 69 +34 +34 очень
душно
1007.5 901.6
16 20.03 ЮВ 1
{2}
н/о н/о +25.9 +22.0 79 +33 +33 очень
душно
1007.4 901.1
19 20.03 ЮВ 1
{2}
н/о н/о +21.8 +21.7 99 +28 +28 душно 1007.4 899.7 6
20 20.03 ЮВ 1
{4}
н/о н/о +21.0 +20.9 99 +27 +27 душно 1008.5 900.4 1
21 20.03 ЮВ 2
{3}
н/о н/о +20.6 +20.5 99 +26 +26 душно 1008.3 900.1 3
22 20.03 ЮВ 1
{3}
н/о н/о +20.4 +20.3 99 +26 +26 душно 1009.2 900.8 0.2
23 20.03 ЮВ 1
{3}
н/о н/о +20.1 +20.0 99 +25 +25 комфорт 1010.6 901.9 0.4
00 21.03 ЮВ 2
{5}
н/о н/о +19.3 +19.3 100 +22 +22 комфорт 1011.5 902.5 3
01 21.03 ЮВ 3
{5}
н/о н/о +19.1 +19.1 100 +21 +21 комфорт 1011.8 902.7
02 21.03 ЮВ 2
{5}
н/о н/о +19.0 +19.0 100 +21 +21 комфорт 1011.7 902.5
03 21.03 ЮВ 2
{5}
н/о н/о +18.5 +18.5 100 +20 +20 1011.5 902.2
04 21.03 ЮВ 2
{5}
н/о н/о +18.4 +18.4 100 +20 +20 1010.9 901.6
05 21.03 ЮВ 2
{4}
н/о н/о +17.8 +17.8 100 +18 +18 1010.8 901.3
06 21.03 ЮВ 2
{4}
н/о н/о +17.8 +17.8 100 +18 +18 1010.3 900.9
07 21.03 ЮВ 2
{4}
н/о н/о +17.9 +17.9 100 +18 +18 1010.5 901.1
08 21.03 ЮВ 2
{4}
н/о н/о +17.9 +17.9 100 +18 +18 1010.6 901.2
09 21.03 ЮВ 2
{4}
н/о н/о +18.1 +18.1 100 +19 +19 1011.1 901.7
10 21.03 ЮВ 2
{4}
н/о н/о +18.4 +18.4 100 +20 +20 1011.6 902.2
11 21.03 ЮВ 2
{4}
н/о н/о +18.9 +18.7 99 +21 +21 комфорт 1012.4 903.1
12 21.03 ЮЗ 2
{4}
н/о н/о +20.3 +18.8 91 +25 +25 комфорт 1012.0 903.3
13 21.03 ЮЗ 2
{3}
н/о н/о +22.7 +17.8 74 +28 +28 душно 1011.2 903.4
14 21.03 ЮЗ 1
{3}
н/о н/о +24.0 +19.6 76 +29 +29 душно 1010.5 903.2
16 21.03 ЮЗ 1
{2}
н/о н/о +22.4 +20.0 86 +29 +29 очень
душно
1009.8 902.0
18 21.03 ЮЗ 1
{3}
н/о н/о +21.5 +19.4 88 +26 +26 душно 1009.4 901.4
20 21.03 ЮЗ 1
{3}
н/о н/о +19.1 +18.8 98 +22 +22 комфорт 1010.9 901.9 0.4
00 22.03 ЮЗ 2
{5}
н/о н/о +18.1 +18.0 99 +19 +19 1013.8 904.1
01 22.03 ЮЗ 2
{5}
н/о н/о +17.7 +17.6 99 +18 +18 1014.0 904.1
02 22.03 ЮЗ 2
{5}
н/о н/о +17.8 +17.7 99 +18 +18 1013.6 903.8
03 22.03 ЮВ 2
{4}
н/о н/о +18.0 +17.9 99 +19 +19 1013.1 903.4
04 22.03 ЮВ 2
{5}
н/о н/о +17.9 +17.9 100 +18 +18 1012.9 903.2
05 22.03 Ю 2
{4}
н/о н/о +18.0 +18.0 100 +19 +19 1012.5 902.9
06 22.03 ЮЗ 2
{5}
н/о н/о +17.8 +17.8 100 +18 +18 1012.0 902.4
07 22.03 ЮЗ 2
{5}
н/о н/о +17.8 +17.8 100 +18 +18 1012.5 902.8
08 22.03 ЮЗ 3
{5}
н/о н/о +17.4 +17.4 100 +18 +18 1013.1 903.2
09 22.03 ЮЗ 2
{5}
н/о н/о +17.5 +17.5 100 +18 +18 1013.4 903.5
10 22.03 ЮЗ 3
{5}
н/о н/о +17.5 +17.5 100 +18 +18 1014.3 904.3
11 22.03 ЮЗ 3
{5}
н/о н/о +17.8 +17.8 100 +18 +18 1015.1 905.1
12 22.03 ЮЗ 2
{5}
н/о н/о +19.5 +17.7 89 +22 +22 комфорт 1015.0 905.7
13 22.03 ЮЗ 3
{5}
н/о н/о +19.8 +17.5 87 +23 +23 комфорт 1015.5 906.2
14 22.03 ЮЗ 2
{5}
н/о н/о +19.7 +17.7 88 +23 +23 комфорт 1015.5 906.2
15 22.03 ЮЗ 2
{5}
н/о н/о +20.0 +18.2 89 +24 +24 комфорт 1014.9 905.7
16 22.03 Ю 3
{6}
н/о н/о +19.0 +17.6 92 +21 +21 комфорт 1014.8 905.3
17 22.03 ЮЗ 3
{6}
н/о н/о +20.5 +17.1 81 +24 +24 комфорт 1013.6 904.8
18 22.03 ЮЗ 2
{6}
н/о н/о +20.2 +17.7 86 +24 +24 комфорт 1013.5 904.6
19 22.03 ЮВ 2
{5}
н/о н/о +18.9 +17.5 92 +21 +21 комфорт 1014.1 904.6
20 22.03 ЮВ 2
{6}
н/о н/о +17.8 +17.7 99 +18 +18 1014.7 904.8 1
21 22.03 ЮВ 3
{6}
н/о н/о +17.4 +17.4 100 +18 +18 1015.5 905.4 0.2
22 22.03 ЮВ 3
{5}
н/о н/о +17.3 +17.3 100 +17 +17 1016.4 906.1 0.4
23 22.03 ЮВ 2
{6}
н/о н/о +16.7 +16.7 100 +17 +17 1017.1 906.5 0.4
00 23.03 ЮВ 3
{6}
н/о н/о +16.4 +16.4 100 +16 +16 1017.9 907.1 0.6
01 23.03 ЮВ 2
{7}
н/о н/о +16.2 +16.2 100 +16 +16 1018.2 907.3
02 23.03 ЮВ 3
{6}
н/о н/о +16.1 +15.7 97 +16 +16 1017.6 906.8
03 23.03 ЮВ 2
{5}
н/о н/о +15.8 +14.9 94 +16 +16 1017.7 906.7
04 23.03 ЮВ 2
{5}
н/о н/о +15.6 +15.4 99 +15 +15 1016.9 906.0 0.4
05 23.03 ЮВ 2
{4}
н/о н/о +15.9 +15.5 97 +16 +16 1016.3 905.5
06 23.03 ЮВ 2
{5}
н/о н/о +15.9 +15.6 98 +16 +16 1015.8 905.1
07 23.03 ЮВ 2
{4}
н/о н/о +16.8 +16.8 100 +17 +17 1015.2 904.9 0.4
08 23.03 ЮВ 1
{5}
н/о н/о +16.8 +16.8 100 +18 +18 1016.0 905.6 0.2
09 23.03 ЮВ 2
{4}
н/о н/о +17.2 +17.2 100 +17 +17 1015.9 905.6 0.2
10 23.03 ЮВ 2
{5}
н/о н/о +17.4 +17.4 100 +18 +18 1016.6 906.3
11 23.03 ЮВ 2
{5}
н/о н/о +17.9 +17.3 96 +18 +18 1017.4 907.2
12 23.03 ЮВ 1
{5}
н/о н/о +18.7 +17.6 93 +21 +21 комфорт 1017.6 907.7 0.2
13 23.03 ЮВ 1
{4}
н/о н/о +19.1 +18.1 94 +22 +22 комфорт 1017.7 907.9
14 23.03 ЮВ 1
{4}
н/о н/о +20.1 +17.9 87 +24 +24 комфорт 1016.9 907.6
15 23.03 ЮВ 1
{3}
н/о н/о +21.0 +17.9 82 +26 +26 душно 1015.9 907.0
16 23.03 ЮЗ 1
{4}
н/о н/о +21.8 +18.1 80 +27 +27 душно 1014.7 906.2
17 23.03 ЮВ 1
{3}
н/о н/о +21.7 +17.1 75 +26 +26 душно 1014.3 905.8
18 23.03 ЮВ 1
{4}
н/о н/о +21.6 +16.6 73 +25 +25 комфорт 1014.0 905.5
19 23.03 ЮВ 1
{3}
н/о н/о +20.9 +16.6 76 +26 +26 душно 1014.3 905.5
20 23.03 ЮВ 2
{3}
н/о н/о +19.5 +17.1 86 +22 +22 комфорт 1015.2 905.8
21 23.03 ЮВ 1
{3}
н/о н/о +18.7 +17.5 93 +21 +21 комфорт 1015.8 906.1
22 23.03 ЮВ 1
{3}
н/о н/о +18.0 +17.9 99 +19 +19 1016.5 906.5 0.2
23 23.03 ЮВ 2
{4}
н/о н/о +18.5 +18.4 99 +20 +20 1016.8 906.9 0.4
00 24.03 ЮВ 2
{5}
н/о н/о +18.4 +18.4 100 +20 +20 1017.3 907.3
01 24.03 ЮВ 2
{5}
н/о н/о +18.4 +18.4 100 +20 +20 1017.2 907.2
02 24.03 ЮВ 2
{5}
н/о н/о +18.4 +18.4 100 +20 +20 1016.9 907.0
03 24.03 ЮВ 2
{4}
н/о н/о +18.5 +18.4 99 +20 +20 1016.5 906.6
04 24.03 ЮВ 2
{4}
н/о н/о +18.5 +18.3 99 +20 +20 1015.8 906.0
05 24.03 ЮВ 2
{5}
н/о н/о +18.3 +18.2 99 +20 +20 1015.3 905.5
06 24.03 ЮВ 1
{4}
н/о н/о +18.3 +18.2 99 +20 +20 1015.0 905.2 0.4
07 24.03 ЮВ 1
{4}
н/о н/о +18.3 +18.3 100 +20 +20 1014.7 905.0 0.8
08 24.03 ЮВ 1
{4}
н/о н/о +18.3 +18.3 100 +20 +20 1015.0 905.2 0.8
09 24.03 ЮВ 2
{4}
н/о н/о +18.4 +18.4 100 +20 +20 1015.3 905.5 0.2
10 24.03 ЮВ 1
{4}
н/о н/о +18.6 +18.6 100 +21 +21 комфорт 1015.9 906.1 0.8
11 24.03 ЮВ 2
{5}
н/о н/о +18.7 +18.7 100 +21 +21 комфорт 1016.7 906.9 2
12 24.03 ЮВ 2
{5}
н/о н/о +18.6 +18.6 100 +20 +20 1017.1 907.2 0.6
13 24.03 ЮВ 2
{5}
н/о н/о +19.5 +19.5 100 +23 +23 комфорт 1017.0 907.4
14 24.03 ЮВ 2
{4}
н/о н/о +20.4 +19.3 93 +25 +25 комфорт 1016.7 907.5
15 24.03 ЮВ 2
{4}
н/о н/о +20.5 +18.8 90 +25 +25 комфорт 1016.4 907.3
16 24.03 ЮВ 1
{3}
н/о н/о +21.4 +19.6 89 +26 +26 душно 1015.4 906.7
17 24.03 ЮВ 1
{3}
н/о н/о +20.6 +19.5 93 +26 +26 душно 1015.3 906.3
18 24.03 ЮВ 2
{3}
н/о н/о +20.4 +19.6 95 +25 +25 комфорт 1014.8 905.8 0.6
19 24.03 ЮВ 1
{4}
н/о н/о +20.6 +19.3 92 +26 +26 душно 1014.3 905.4
20 24.03 ЮВ 1
{4}
н/о н/о +20.0 +19.0 94 +24 +24 комфорт 1014.4 905.3
21 24.03 ЮВ 2
{4}
н/о н/о +19.0 +18.4 96 +21 +21 комфорт 1015.0 905.5
22 24.03 ЮВ 2
{4}
н/о н/о +18.5 +17.9 96 +20 +20 1016.0 906.2
23 24.03 ЮВ 2
{4}
н/о н/о +18.3 +17.7 96 +20 +20 1016.4 906.5
00 25.03 ЮВ 2
{4}
н/о н/о +18.2 +17.7 97 +19 +19 1017.0 907.0
01 25.03 ЮВ 2
{5}
н/о н/о +18.2 +17.7 97 +19 +19 1017.1 907.1
02 25.03 ЮВ 2
{4}
н/о н/о +18.1 +17.5 96 +19 +19 1017.1 907.0
03 25.03 ЮВ 1
{4}
н/о н/о +17.7 +17.1 96 +19 +19 1016.9 906.7
04 25.03 ЮВ 1
{3}
н/о н/о +17.1 +15.8 92 +18 +18 1016.1 905.8
05 25.03 ЮВ 2
{4}
н/о н/о +17.9 +16.8 93 +19 +19 1014.9 905.0
06 25.03 ЮВ 1
{4}
н/о н/о +18.1 +17.7 98 +19 +19 1014.6 904.8
07 25.03 ЮВ 1
{4}
н/о н/о +18.1 +17.9 99 +19 +19 1014.4 904.6
08 25.03 ЮВ 2
{5}
н/о н/о +18.2 +18.0 99 +19 +19 1014.3 904.6
09 25.03 ЮВ 1
{3}
н/о н/о +17.9 +17.8 99 +19 +19 1014.8 904.9
10 25.03 ЮВ 1
{4}
н/о н/о +18.6 +18.3 98 +21 +21 комфорт 1015.0 905.3
11 25.03 ЮВ 2
{4}
н/о н/о +19.2 +18.4 95 +22 +22 комфорт 1015.5 906.0
12 25.03 ЮВ 1
{4}
н/о н/о +21.2 +18.5 85 +26 +26 душно 1015.1 906.3
13 25.03 ЮВ 1
{4}
н/о н/о +22.5 +19.1 81 +28 +28 душно 1014.3 906.1
14 25.03 ЮВ 1
{3}
н/о н/о +22.6 +18.5 78 +28 +28 душно 1014.1 905.9 0.2
15 25.03 ЮВ 2
{3}
н/о н/о +23.3 +19.6 80 +30 +30 очень
душно
1013.2 905.4
16 25.03 ЮВ 1
{3}
н/о н/о +23.8 +18.4 72 +28 +28 душно 1012.7 905.1
17 25.03 Ю 1
{3}
н/о н/о +23.2 +18.6 75 +29 +29 душно 1011.9 904.2
18 25.03 Ю 1
{3}
н/о н/о +23.3 +18.4 74 +29 +29 душно 1011.3 903.7
19 25.03 Ю 1
{3}
н/о н/о +22.7 +18.4 77 +28 +28 душно 1011.4 903.6
20 25.03 Ю 1
{3}
н/о н/о +21.7 +18.6 83 +27 +27 душно 1012.1 903.8
21 25.03 Ю 1
{3}
н/о н/о +19.9 +19.1 95 +24 +24 комфорт 1013.0 904.0
22 25.03 Ю 2
{3}
н/о н/о +19.3 +18.8 97 +22 +22 комфорт 1013.2 904.0
23 25.03 Ю 2
{4}
н/о н/о +18.7 +18.0 96 +20 +20 1013.7 904.2
00 26.03 Ю 2
{3}
н/о н/о +18.5 +17.8 96 +20 +20 1014.4 904.8
01 26.03 Ю 2
{3}
н/о н/о +17.8 +17.6 99 +19 +19 1015.4 905.4
03 26.03 Ю 2
{4}
н/о н/о +17.3 +17.3 100 +18 +18 1015.3 905.1
04 26.03 Ю 2
{4}
н/о н/о +17.0 +17.0 100 +17 +17 1015.0 904.8
05 26.03 Ю 2
{4}
н/о н/о +17.1 +17.1 100 +17 +17 1014.8 904.6

 

Местоположение метеостанции Санта-Тереза (Эспириту-Санту, Бразилия): широта -19.98 долгота -40.58 высота над уровнем моря 990 м.

В архиве по умолчанию представлена погода в Санта-Терезе за последнюю неделю. Архивные данные за месяц целиком и за предыдущие месяцы, начиная с января 2011 года, Вы можете получить, выбрав интересующий диапазон дат из раскрывающегося списка и нажав кнопку "Ввод!".


*Определитесь, кто Вы:
робот инопланетянин человек

Внимание! Время в таблицах - всемирное. Для получения местного времени необходимо прибавить поправку, которая равна -3 ч.

Смотрите также архив погоды в соседних городах и на ближайших метеорологических станциях:

Погода в Витории (Эспириту-Санту, Бразилия) (44 км)
Погода в Витория-Гастейсе (Эспириту-Санту, Бразилия) (47 км)
Погода в Афонсу-Клаудио (Эспириту-Санту, Бразилия) (57 км)
Погода в Алфреду-Шависе (Эспириту-Санту, Бразилия) (74 км)
Погода в Айморесе (Минас-Жерайс, Бразилия) (74 км)
Погода в Айморесе (Минас-Жерайс, Бразилия) (75 км)
Погода в Линьярисе (Эспириту-Санту, Бразилия) (88 км)
Погода в Алегри (Эспириту-Санту, Бразилия) (127 км)
Погода в Президенти-Кеннеди (Эспириту-Санту, Бразилия) (133 км)
Погода в Мантене (Эспириту-Санту, Бразилия) (140 км)

Пояснения к столбцам:

Ветер - указаны скорость ветра в м/с - средняя за 10 мин, порывы в срок и между сроками (в фигурных скобках) и направление, откуда дует ветер: С - северный, СВ - северо-восточный, В - восточный, ЮВ - юго-восточный, Ю - южный, ЮЗ - юго-западный, З - западный, СЗ - северо-западный.
Видимость - горизонтальная дальность видимости в метрах или километрах. При видимости от 1 до 10 км при отсутствии осадков обычно наблюдается дымка, при ухудшении видимости до 1 км и менее - туман. В сухую погоду видимость может ухудшаться дымом, пылью или мглою.
Явления - указаны атмосферные явления, наблюдавшиеся в срок или в последний час перед сроком; фигурными скобками обозначены явления, наблюдавшиеся между сроками (за 1-3 часа до срока); квадратными скобками обозначены град или гололедные отложения с указанием их диаметра в мм.
Облачность - указаны через наклонную черту общая и нижняя облачность в баллах и высота нижней границы облаков в метрах; квадратными скобками обозначены формы облаков: Ci - перистые, Cs - перисто-слоистые, Cc - перисто-кучевые, Ac - высококучевые, As - высокослоистые, Sc - слоисто-кучевые, Ns - слоисто-дождевые, Cu - кучевые, Cb - кучево-дождевые. Подробнее классификацию облаков см. в Атласе облаков (PDF).
T - Температура воздуха - температура, измеренная на высоте 2 м над землей.
Td - Температура точки росы - температура, при понижении до которой содержащийся в воздухе водяной пар достигнет насыщения.
f - Относительная влажность воздуха - влажноcть воздуха, измеренная на высоте 2 м над землей.
Te - Эффективная температура - температура, которую ощущает одетый по сезону человек в тени. Характеристика душности погоды. При расчете учитывается влияние влажности воздуха и скорости ветра на теплоощущения человека.
Tes - Эффективная температура на солнце - температура, которую ощущает человек, с поправкой на солнечный нагрев. Характеристика знойности погоды. Зависит от высоты солнца над горизонтом, облачности и скорости ветра. Ночью, в пасмурную погоду, а также при ветре 12 м/с и более поправка равна нулю.
P - Атмосферное давление - приведенное к уровню моря атмосферное давление.
Po - Атмосферное давление - измеренное на уровне метеостанции атмосферное давление.
Tmin - Минимальная температура - минимум температуры воздуха на высоте 2 м над землей.
Tmax - Максимальная температура - максимум температуры воздуха на высоте 2 м над землей.
R - Количество осадков - Количество выпавших осадков за период времени, мм. При наведении курсора мыши на число - период времени, за который выпало указанное количество осадков.
R24 - Количество осадков - Количество выпавших осадков за 24 часа, мм.
S - Снежный покров - Высота снежного покрова, см. При наведении курсора мыши на число - состояние снежного покрова и степень покрытия местности в баллах.